#timestamp,LO_Frequency,Hit,StdDev 
1514642415.0,286046995.9,N
1514642416.0,286046995.9,N
1514642435.8,286046993.5,N
1514642455.6,286046990.8,N
1514642475.4,286046987.6,N
1514642495.3,286046988.0,N
1514642515.1,286046984.2,N
1514642535.8,286046983.9,N
1514642555.7,286046984.0,N
1514642575.5,286046983.2,N
1514642595.3,286046982.6,N
1514642615.2,286046980.3,N
1514642635.9,286046974.7,Y
1514642655.7,286046976.4,P
1514642675.6,286046978.0,N
1514642695.4,286046975.0,N
1514642715.2,286046975.0,Y
1514642735.1,286046993.7,P
1514642736.0,286046993.7,N
1514642755.8,286046994.4,N
1514642775.6,286046993.0,N
1514642795.5,286046990.2,N
1514642815.3,286046990.5,N
1514642835.1,286046992.1,N
1514642855.9,286046996.2,N
1514642875.7,286046993.3,N
1514642895.5,286046992.2,N
1514642915.3,286046992.3,N
1514642935.2,286046989.8,N
1514642955.0,286046987.5,Y
1514642955.9,286046987.5,P
1514642975.8,286046999.4,N
1514642995.6,286046995.8,N
1514643015.4,286046993.6,N
1514643035.2,286046993.1,N
1514643055.1,286046994.2,N
1514643056.0,286046994.2,N
1514643075.8,286046995.6,N
1514643095.6,286046997.8,N
1514643115.5,286046998.0,N
1514643135.3,286046994.7,N
1514643155.1,286046991.8,N
1514643175.9,286046990.1,Y
1514643195.7,286046998.4,P
1514643215.5,286047000.3,N
1514643235.4,286047002.2,N
1514643255.2,286047002.5,N
1514643275.0,286047001.6,N
1514643275.9,286047001.6,N
1514643295.8,286047004.2,N
1514643315.6,286047002.1,N
1514643335.4,286046998.4,N
1514643355.3,286046997.2,N
1514643375.1,286046999.3,N
1514643376.0,286046999.3,N
1514643395.8,286046995.6,N
1514643415.6,286046995.4,N
1514643435.5,286046993.7,N
1514643455.3,286046999.2,N
1514643475.1,286046999.6,N
1514643495.9,286046997.3,N
1514643515.7,286046993.5,N
1514643535.5,286046995.0,N
1514643555.4,286046992.3,N
1514643575.2,286046990.9,N
1514643595.0,286046993.1,N
1514643595.9,286046993.1,N
1514643615.8,286046993.8,N
1514643635.6,286046995.5,N
1514643655.4,286046992.0,N
1514643675.3,286046994.8,N
1514643695.1,286046992.8,N
1514643696.0,286046992.8,N
1514643715.8,286046994.8,N
1514643735.6,286046994.5,N
1514643755.5,286046993.2,N
1514643775.3,286046994.7,N
1514643795.1,286046991.0,N
1514643815.9,286046991.8,N
1514643835.7,286046993.8,N
1514643855.5,286046993.9,N
1514643875.4,286046991.8,Y
1514643895.2,286047000.8,P
1514643915.0,286046998.4,N
1514643915.9,286046998.4,N
1514643935.8,286046997.5,N
1514643955.6,286046995.0,N
1514643975.4,286046997.6,N
1514643995.3,286046993.7,Y
1514644015.1,286046997.6,P
1514644035.8,286046995.2,P
1514644055.7,286046993.3,P
1514644075.5,286046993.5,Y
1514644095.3,286046992.0,P
1514644115.2,286046991.7,P
1514644135.9,286046991.4,P
1514644155.7,286046990.5,Y
1514644175.6,286047000.6,P
1514644195.4,286047000.1,N
1514644215.2,286047002.3,N
1514644235.1,286047004.4,N
1514644236.0,286047004.4,N
1514644255.8,286047003.5,N
1514644275.6,286047000.5,N
1514644295.5,286047000.1,N
1514644315.3,286046996.5,N
1514644335.1,286046997.4,N
1514644355.9,286046995.6,N
1514644375.7,286046995.6,N
1514644395.5,286046996.9,N
1514644415.3,286046996.9,N
1514644435.2,286046995.4,N
1514644455.0,286046999.5,N
1514644455.9,286046999.5,N
1514644475.7,286046999.1,N
1514644495.6,286046999.6,N
1514644515.4,286046997.0,N
1514644535.2,286046997.8,N
1514644555.1,286046997.4,N
1514644556.0,286046997.4,N
1514644575.8,286046997.8,N
1514644595.6,286046997.2,N
1514644615.5,286046996.7,N
1514644635.3,286046995.0,N
1514644655.1,286046993.5,N
1514644675.9,286046992.6,N
1514644695.7,286046991.7,N
1514644715.5,286046989.0,Y
1514644735.4,286046991.6,P
1514644755.2,286046988.9,P
1514644775.0,286046990.4,N
1514644775.9,286046990.4,N
1514644795.8,286046994.4,N
1514644815.6,286046997.8,N
1514644835.4,286046998.8,N
1514644855.2,286046999.6,N
1514644875.1,286046995.4,N
1514644876.0,286046995.4,N
1514644895.8,286046995.0,N
1514644915.6,286046996.9,N
1514644935.5,286046995.7,N
1514644955.3,286046998.8,N
1514644975.1,286046995.1,N
1514644995.9,286046996.2,N
1514645015.7,286046997.9,N
1514645035.5,286046998.3,N
1514645055.4,286047000.1,N
1514645075.2,286046998.3,N
1514645095.0,286046997.0,N
1514645095.9,286046997.0,N
1514645115.7,286047000.6,N
1514645135.6,286046999.1,N
1514645155.4,286047000.9,N
1514645175.2,286046999.5,N
1514645195.1,286047000.1,N
1514645196.0,286047000.1,N
1514645215.8,286047001.7,N
1514645235.6,286047002.7,N
1514645255.5,286047004.0,N
1514645275.3,286047001.7,N
1514645295.1,286047002.2,N
1514645315.9,286046998.1,N
1514645335.7,286046999.1,N
1514645355.5,286046997.2,N
1514645375.4,286046997.2,N
1514645395.2,286046997.1,N
1514645415.0,286046999.2,N
1514645415.9,286046999.2,N
1514645435.7,286047000.7,N
1514645455.6,286047002.7,N
1514645475.4,286047003.3,N
1514645495.2,286047006.4,N
1514645515.1,286047007.5,N
1514645516.0,286047007.5,N
1514645535.8,286047005.5,N
1514645555.6,286047004.5,N
1514645575.5,286047001.9,N
1514645595.3,286047001.1,N
1514645615.1,286047000.0,N
1514645635.9,286047001.7,N
1514645655.7,286047001.9,N
1514645675.5,286046998.8,N
1514645695.4,286047002.5,N
1514645715.2,286047000.7,N
1514645735.0,286046997.1,N
1514645735.9,286046997.1,N
1514645755.8,286046994.0,N
1514645775.6,286046992.3,N
1514645795.4,286046992.3,N
1514645815.2,286046992.9,N
1514645835.1,286046991.5,N
1514645836.0,286046991.5,N
1514645855.8,286046990.4,N
1514645875.6,286046991.0,N
1514645895.5,286046988.4,N
1514645915.3,286046986.7,N
1514645935.1,286046982.7,N
1514645955.9,286046977.9,Y
1514645975.7,286046983.4,P
1514645995.5,286046982.5,N
